Regional Weather Roundup
Issued by NWS

Home | Current Version | Previous Version | Graphics & Text | Print | Product List | Glossary On
Versions: 1 2 3 4 5 6 7 8 9 10 11 12 13 14 15 16 17 18 19 20 21 22 23 24 25 26 27
000
ASUS45 KTFX 251910
RWRMT
MONTANA REGIONAL WEATHER ROUNDUP
NATIONAL WEATHER SERVICE GREAT FALLS MT
100 PM MDT TUE APR 25 2017

NOTE: "FAIR" INDICATES FEW OR NO CLOUDS BELOW 12000 FEET WITH NO
SIGNIFICANT WEATHER AND/OR OBSTRUCTIONS TO VISIBILITY.

MTZ001>007-043-252000-
WEST OF THE DIVIDE

CITY           SKY/WX    TMP DP  RH WIND       PRES   REMARKS
KALISPELL      LGT RAIN  47  39  74 VRB3      29.80F
MISSOULA       CLOUDY    49  38  65 S5        29.85S
BUTTE          CLOUDY    47  28  47 N10       29.81F
MULLAN PASS    FOG       32  32 100 VRB5      29.83S VSB 1/4
ANACONDA         N/A     48  27  43 W7        29.81F
DEER LODGE       N/A     48  30  49 SE5       29.83F
EUREKA           N/A     54  36  50 S8        29.78S
HAMILTON         N/A     50  28  43 NE3       29.83F
PLAINS           N/A     51  38  61 CALM      29.85F
$$

MTZ008-052>055-252000-
SOUTHWEST MONTANA

CITY           SKY/WX    TMP DP  RH WIND       PRES   REMARKS
BOZEMAN        LGT RAIN  45  36  70 W5        29.80S
DILLON         CLOUDY    41  35  79 S13       29.81S
W YELLOWSTONE  CLOUDY    39  30  70 SW6       29.78R
ENNIS          PTSUNNY   45  34  65 N9        29.84S
THREE FORKS      N/A     43  43 100 NW12      29.83R
$$

MTZ009-010-012-014-046-048-049-054-252000-
EAST SLOPES AND CENTRAL MONTANA

CITY           SKY/WX    TMP DP  RH WIND       PRES   REMARKS
CUT BANK       CLOUDY    42  37  82 SE9       29.78F
GREAT FALLS    PTSUNNY   48  36  63 CALM      29.78F
MALMSTROM AFB  MOSUNNY   48  39  71 SE6       29.79F
HELENA         MOSUNNY   56  32  40 W21       29.78F
AUGUSTA        FLURRIES  38  33  82 N8G22     29.78R WCI  32
BOWMANS CRNR   LGT RAIN  41  35  80 SW12      29.76S
CHOTEAU          N/A     43  39  87 E7        29.79F FOG
FAIRFIELD      PTSUNNY   46  36  67 E7        29.76F
POWER            N/A     43  41  91 E9        29.78F
RAYNESFORD     PTSUNNY   45  38  77 SE3       29.79F
ULM            PTSUNNY   49  38  66 NE6       29.77F
$$

MTZ011-013-016-021-045-047-050-051-252000-
NORTH CENTRAL MONTANA

CITY           SKY/WX    TMP DP  RH WIND       PRES   REMARKS
HAVRE          CLOUDY    43  31  62 E16       29.85F
LEWISTOWN      CLOUDY    42  33  70 E12       29.81F
CHINOOK          N/A     39  27  60 E17G25    29.89F WCI  30
DENTON         PTSUNNY   42  37  83 E13       29.80F
FORT BENTON      N/A     45  37  76 MISG      29.83S
GEYSER         CLOUDY    42  38  86 E9        29.80S
GRASS RANGE    CLOUDY    33  33 100 E13       29.83F WCI  24
JUDITH GAP     CLOUDY    35  34  96 S16       29.82F WCI  24
STANFORD       PTSUNNY   42  37  81 E6        29.80F
WINIFRED       PTSUNNY   40  33  75 E17       29.83S
$$

MTZ017>020-022>027-061-062-252000-
NORTHEAST MONTANA

CITY           SKY/WX    TMP DP  RH WIND       PRES   REMARKS
GLASGOW        CLOUDY    36  24  62 E12       29.96F WCI  28
JORDAN           N/A     35  26  69 NE7       29.93S WCI  29
SIDNEY         CLOUDY    36  23  59 NE9       29.96S WCI  29
WOLF POINT     CLOUDY    40  24  53 E13       29.97F
MALTA          CLOUDY    36  27  69 E12G18    29.94  WCI  27
PLENTYWOOD       N/A     36  21  55 NE13G18   29.98R WCI  27
POPLAR           N/A     37  21  52 NE8G18    29.97S WCI  31
SCOBEY           N/A     35  19  52 NE7       29.95S WCI  29
$$

MTZ028>42-056>058-252000-
SOUTHCENTRAL AND SOUTHEAST MONTANA

CITY           SKY/WX    TMP DP  RH WIND       PRES   REMARKS
BAKER          CLOUDY    28  24  85 NE15      29.89R WCI  16
BILLINGS       CLOUDY    32  30  92 E7        29.88S WCI  26
LIVINGSTON     PTSUNNY   45  37  73 E9        29.80F
MILES CITY     CLOUDY    34  24  67 NE12      29.91S WCI  25
BIG TIMBER     CLOUDY    41  36  81 E10       29.85S
EKALAKA          N/A     26  23  88 NE9       29.83R WCI  17
LAUREL           N/A     35  25  67 NE7       29.87F WCI  29
ROUNDUP          N/A     33  27  79 NE5       29.82S
$$

REGIONAL REPORTS...DAKOTAS

CITY           SKY/WX    TMP DP  RH WIND       PRES   REMARKS
WILLISTON      CLOUDY    38  23  55 E12       29.97S WCI  30
MINOT          CLOUDY    37  25  61 N16       29.92S WCI  28
DICKINSON      CLOUDY    27  23  85 N15       29.87R WCI  15
BEACH          CLOUDY    28  27  93 NE8G15    29.94S WCI  20
TIOGA          CLOUDY    32  27  80 E15       29.96R WCI  22
WATFORD CITY   CLOUDY    34  25  69 NE15      29.94S WCI  24
BISMARCK       CLOUDY    34  26  72 NE17      29.88S WCI  23
GRAND FORKS    CLOUDY    36  29  75 N23G30    29.84S WCI  24
FARGO          CLOUDY    38  31  76 N24G32    29.75S WCI  27
BUFFALO SD       N/A     28  26  92 NE18      29.76R WCI  15
RAPID CITY     FLURRIES  30  27  88 N18       29.77R WCI  18
$$

REGIONAL REPORTS...WYOMING/IDAHO/WASHINGTON

CITY           SKY/WX    TMP DP  RH WIND       PRES   REMARKS
GILLETTE       SNOW      28  28 100 N21       29.78R WCI  15
SHERIDAN       LGT SNOW  34  29  82 N6        29.84S VSB 1   WCI  29
CODY           CLOUDY    37  31  78 N16       29.82S WCI  28
YELLOWSTONE LA   N/A     38  26  62 NW9       29.79R WCI  31
IDAHO FALLS    CLOUDY    44  39  82 SE9       29.82R
SALMON         CLOUDY    50  28  43 SW5       29.84F
BOISE          PTSUNNY   52  36  54 NW8G20    29.93F
SPOKANE        PTSUNNY   48  39  71 SW13      29.89F
$$

REGIONAL REPORTS...ALBERTA

CITY           SKY/WX    TMP DP  RH WIND       PRES   REMARKS
EDMONTON       CLOUDY    36  27  69 CALM      29.94R
CALGARY        FLURRIES  32  27  80 N12       29.87S WCI  23
LETHBRIDGE     FLURRIES  37  36  93 NW10      29.83R WCI  30
MEDICINE HAT   LGT RAIN  36  34  93 CALM      29.87S
WATERTON GATE    N/A     32  30  93 NE9         N/A  WCI  24
CARDSTON         N/A     32  32 100 N7          N/A  WCI  26
MILK RIVER       N/A     39  37  93 S13         N/A  WCI  32
ONEFOUR          N/A     32  34 100 E13         N/A  WCI  22
$$

REGIONAL REPORTS...SASKATCHEWAN

CITY           SKY/WX    TMP DP  RH WIND       PRES   REMARKS
SWIFT CURRENT  CLOUDY    32  25  74 E15G21    29.94F WCI  22
REGINA         MOSUNNY   34  18  51 E12G17    30.03S WCI  25
SASKATOON      CLOUDY    36  19  51 E12G18    30.08F WCI  27
CYPRESS HILLS    N/A     27  25  93 SE9         N/A  WCI  17
VAL MARIE        N/A     34  27  75 SE10        N/A  WCI  26
ROCKGLEN         N/A     32  21  64 E7          N/A  WCI  26
ASSINIBOIA       N/A     34  30  86 SE10        N/A  WCI  26
$$




USA.gov is the U.S. government's official web portal to all federal, state and local government web resources and services.